カタログに戻る

COSMOS 2251 DEB

運用中LEO
NORAD 35060·DEBRIS·🇷🇺 Russia

打ち上げ Jun 16, 1993 から Plesetsk Cosmodrome

Loading…

次のパス (今後24時間)

TLE

経年Source: Space-Track

元期: Sep 9, 2026, 06:29 UTC

1 35060U 93036AHP 26252.27033836  .00000509  00000-0  16251-3 0  9996
2 35060  74.0353 102.9729 0017639 127.9970 232.2783 14.42088247911412

AllMySatでCOSMOS 2251 DEBをリアルタイム追跡

Download on the App Store